GW4605 Weather Reports


time (UTC)temp
C
wind
direction
speed
KPH
gust
KPH
rain 1hr
cm
rain 24hr
cm
rain mn
cm
humidity
%
barometer
mb
20260505075845 17 48 1.6 3.2 0.00 0.00 0.00 63 1010.6
20260505075342 17 64 1.6 3.2 0.00 0.00 0.00 63 1010.7
20260505074839 17 42 0.0 1.6 0.00 0.00 0.00 63 1010.6
20260505074336 17 167 1.6 3.2 0.00 0.00 0.00 63 1010.5
20260505073833 17 44 1.6 1.6 0.00 0.00 0.00 63 1010.4
20260505073331 17 241 3.2 4.8 0.00 0.00 0.00 63 1010.3
20260505072828 17 66 0.0 1.6 0.00 0.00 0.00 63 1010.4
20260505072324 17 216 0.0 4.8 0.00 0.00 0.00 63 1010.4
20260505071820 17 193 0.0 3.2 0.00 0.00 0.00 63 1010.4
20260505071317 17 109 0.0 3.2 0.00 0.00 0.00 63 1010.3
20260505070815 17 229 1.6 12.9 0.00 0.00 0.00 63 1010.4
20260505070311 17 190 0.0 4.8 0.00 0.00 0.00 63 1010.3
20260505065806 17 26 3.2 4.8 0.00 0.00 0.00 64 1010.6
20260505065304 17 31 1.6 3.2 0.00 0.00 0.00 63 1010.6
20260505064800 17 279 3.2 6.4 0.00 0.00 0.00 64 1010.6
20260505064257 17 69 0.0 3.2 0.00 0.00 0.00 65 1010.4
20260505063755 17 84 0.0 1.6 0.00 0.00 0.00 66 1010.5
20260505063252 16 217 0.0 1.6 0.00 0.00 0.00 66 1010.6
20260505062748 16 242 3.2 4.8 0.00 0.00 0.00 68 1010.8
20260505062246 16 192 0.0 1.6 0.00 0.00 0.00 68 1010.7
20260505061743 16 248 1.6 3.2 0.00 0.00 0.00 69 1010.6
20260505061241 16 220 0.0 0.0 0.00 0.00 0.00 69 1010.8
20260505060738 16 252 1.6 3.2 0.00 0.00 0.00 69 1010.6
20260505060235 16 236 0.0 3.2 0.00 0.00 0.00 71 1010.9
20260505055729 16 235 0.0 3.2 0.00 0.00 0.00 73 1010.9
20260505055226 15 178 0.0 1.6 0.00 0.00 0.00 75 1010.9
20260505054724 15 193 0.0 0.0 0.00 0.00 0.00 75 1010.7
20260505054222 15 182 0.0 0.0 0.00 0.00 0.00 75 1011.0
20260505053720 15 233 1.6 1.6 0.00 0.00 0.00 76 1010.7
20260505053215 15 203 0.0 0.0 0.00 0.00 0.00 77 1010.8
20260505052713 15 203 0.0 1.6 0.00 0.00 0.00 77 1010.9
20260505052204 15 165 0.0 0.0 0.00 0.00 0.00 78 1010.8
20260505051702 14 241 1.6 3.2 0.00 0.00 0.00 79 1010.8
20260505051200 14 170 1.6 1.6 0.00 0.00 0.00 82 1010.8
20260505050657 14 116 0.0 0.0 0.00 0.00 0.00 82 1010.8
20260505050156 14 186 0.0 0.0 0.00 0.00 0.00 82 1010.5
20260505041630 12 193 0.0 0.0 0.00 0.00 0.00 90 1010.6
20260505041128 12 179 0.0 0.0 0.00 0.00 0.00 91 1010.5
20260505040624 12 157 0.0 0.0 0.00 0.00 0.00 92 1010.2
20260505040122 12 247 1.6 3.2 0.00 0.00 0.00 92 1010.5
20260505035618 12 210 1.6 1.6 0.00 0.00 0.00 93 1010.2
20260505035114 12 187 0.0 0.0 0.00 0.00 0.00 93 1010.3
20260505034611 12 173 0.0 1.6 0.00 0.00 0.00 93 1010.3
20260505034108 12 173 0.0 0.0 0.00 0.00 0.00 93 1010.5
20260505033605 12 161 0.0 0.0 0.00 0.00 0.00 93 1010.2
20260505033103 12 138 0.0 0.0 0.00 0.00 0.00 92 1010.4
20260505032601 11 122 0.0 0.0 0.00 0.00 0.00 92 1010.4
20260505032057 12 78 0.0 0.0 0.00 0.00 0.00 92 1010.5
20260505031554 12 70 0.0 0.0 0.00 0.00 0.00 91 1010.3
20260505031050 12 70 0.0 0.0 0.00 0.00 0.00 91 1010.5
20260505030548 12 147 0.0 0.0 0.00 0.00 0.00 91 1010.5
20260505030043 12 65 0.0 0.0 0.00 0.00 0.00 90 1010.3
20260505025534 12 63 0.0 0.0 0.00 0.00 0.00 90 1010.6
20260505025033 12 55 0.0 0.0 0.00 0.00 0.00 89 1010.5
20260505024530 12 104 0.0 0.0 0.00 0.00 0.00 89 1010.4
20260505024027 13 71 0.0 0.0 0.00 0.00 0.00 88 1010.2
20260505023524 13 97 0.0 0.0 0.00 0.00 0.00 87 1010.3
20260505023022 13 113 0.0 0.0 0.00 0.00 0.00 86 1010.4
20260505022519 13 262 0.0 0.0 0.00 0.00 0.00 85 1010.2
20260505022016 13 226 0.0 0.0 0.00 0.00 0.00 84 1010.3
20260505021513 14 200 0.0 1.6 0.00 0.00 0.00 83 1010.3
20260505021009 14 259 0.0 1.6 0.00 0.00 0.00 81 1010.4
20260505020508 15 30 0.0 0.0 0.00 0.00 0.00 80 1010.2
20260505020006 14 238 1.6 1.6 0.00 0.00 0.00 81 1010.2
20260505015503 14 227 0.0 1.6 0.00 0.00 0.00 82 1010.4
20260505015000 14 240 0.0 1.6 0.00 0.00 0.00 81 1010.0
20260505014457 15 257 3.2 3.2 0.00 0.00 0.00 81 1010.2
20260505013954 15 252 1.6 1.6 0.00 0.00 0.00 80 1010.2
20260505013451 15 235 0.0 1.6 0.00 0.00 0.00 79 1010.4
20260505012948 15 240 1.6 1.6 0.00 0.00 0.00 79 1010.3
20260505012446 15 225 0.0 0.0 0.00 0.00 0.00 80 1010.4
20260505011943 15 235 0.0 0.0 0.00 0.00 0.00 79 1010.3
20260505011439 15 223 0.0 1.6 0.00 0.00 0.00 78 1010.0
20260505010936 15 184 0.0 1.6 0.00 0.00 0.00 77 1010.2
20260505010432 15 254 0.0 0.0 0.00 0.00 0.00 77 1010.0
20260505005928 15 254 0.0 0.0 0.00 0.00 0.00 75 1010.0
20260505005425 16 237 0.0 0.0 0.00 0.00 0.00 75 1009.9
20260505004922 16 235 0.0 0.0 0.00 0.00 0.00 75 1009.9
20260505004418 16 208 0.0 0.0 0.00 0.00 0.00 73 1010.0
20260505003915 16 242 0.0 0.0 0.00 0.00 0.00 72 1010.0
20260505003413 17 244 0.0 0.0 0.00 0.00 0.00 71 1010.0
20260505002909 17 162 0.0 0.0 0.00 0.00 0.00 70 1010.5
20260505002405 18 160 0.0 0.0 0.00 0.00 0.00 65 1010.4
20260505001904 18 114 0.0 0.0 0.00 0.00 0.00 63 1010.4
20260505001401 19 142 0.0 0.0 0.00 0.00 0.00 60 1010.5
20260505000858 20 94 0.0 0.0 0.00 0.00 0.00 57 1010.5
20260505000358 20 137 0.0 0.0 0.00 0.00 0.00 56 1010.3
20260504235852 21 110 0.0 0.0 0.00 0.00 0.00 54 1010.3
20260504235349 21 143 0.0 0.0 0.00 0.00 0.00 53 1010.4
20260504234845 21 225 0.0 1.6 0.00 0.00 0.00 53 1010.6
20260504234343 21 211 0.0 3.2 0.00 0.00 0.00 53 1010.6
20260504233840 21 33 3.2 3.2 0.00 0.00 0.00 51 1010.5
20260504233335 21 230 3.2 3.2 0.00 0.00 0.00 52 1010.5
20260504232833 21 68 1.6 3.2 0.00 0.00 0.00 52 1010.4
20260504232329 21 28 1.6 4.8 0.00 0.00 0.00 54 1010.6
20260504231826 21 192 0.0 11.3 0.00 0.00 0.00 53 1010.5
20260504231323 21 133 0.0 12.9 0.00 0.00 0.00 53 1010.8
20260504230819 21 65 0.0 9.7 0.00 0.00 0.00 53 1010.7
20260504230317 21 53 3.2 4.8 0.00 0.00 0.00 53 1010.8
20260504225816 21 97 0.0 6.4 0.00 0.00 0.00 54 1011.1
20260504225311 21 43 3.2 3.2 0.00 0.00 0.00 53 1010.9
20260504224809 21 70 3.2 11.3 0.00 0.00 0.00 52 1010.8
20260504224306 21 55 1.6 9.7 0.00 0.00 0.00 53 1011.1
20260504223802 21 30 3.2 11.3 0.00 0.00 0.00 51 1011.0
20260504223258 21 18 3.2 16.1 0.00 0.00 0.00 51 1010.8
20260504222755 21 55 8.0 9.7 0.00 0.00 0.00 49 1010.8
20260504222252 22 21 6.4 12.9 0.00 0.00 0.00 50 1010.8
20260504221750 23 35 6.4 12.9 0.00 0.00 0.00 47 1010.9
20260504221247 22 39 0.0 3.2 0.00 0.00 0.00 49 1010.9
20260504220743 22 32 6.4 9.7 0.00 0.00 0.00 47 1010.7
20260504220240 22 35 12.9 17.7 0.00 0.00 0.00 47 1010.5
20260504215737 22 47 4.8 6.4 0.00 0.00 0.00 47 1010.5
20260504215234 22 261 1.6 3.2 0.00 0.00 0.00 48 1010.6
20260504214730 22 51 6.4 12.9 0.00 0.00 0.00 47 1010.7
20260504214226 22 32 3.2 17.7 0.00 0.00 0.00 49 1010.5
20260504213723 22 53 9.7 17.7 0.00 0.00 0.00 47 1010.9
20260504213220 22 47 8.0 11.3 0.00 0.00 0.00 49 1010.7
20260504212717 23 346 4.8 11.3 0.00 0.00 0.00 48 1010.7
20260504212214 23 66 3.2 6.4 0.00 0.00 0.00 50 1010.8
20260504211711 22 66 0.0 4.8 0.00 0.00 0.00 51 1010.7
20260504211207 22 37 1.6 11.3 0.00 0.00 0.00 49 1010.5
20260504210704 23 329 4.8 12.9 0.00 0.00 0.00 48 1010.8
20260504210201 23 22 8.0 12.9 0.00 0.00 0.00 45 1010.8
20260504205658 23 39 11.3 12.9 0.00 0.00 0.00 47 1010.5
20260504205155 22 63 3.2 4.8 0.00 0.00 0.00 48 1010.6
20260504204654 23 63 4.8 6.4 0.00 0.00 0.00 47 1010.4
20260504204153 23 335 4.8 6.4 0.00 0.00 0.00 45 1010.4
20260504203651 23 225 1.6 6.4 0.00 0.00 0.00 47 1010.3
20260504203149 24 66 0.0 9.7 0.00 0.00 0.00 47 1010.4
20260504202648 23 143 1.6 6.4 0.00 0.00 0.00 50 1010.4
20260504202146 22 192 3.2 16.1 0.00 0.00 0.00 49 1010.5
20260504201643 22 334 3.2 11.3 0.00 0.00 0.00 47 1010.8
20260504201140 22 27 4.8 9.7 0.00 0.00 0.00 48 1010.6
20260504200637 23 46 4.8 4.8 0.00 0.00 0.00 47 1010.7
20260504200134 22 144 3.2 4.8 0.00 0.00 0.00 47 1010.6
20260504195630 22 61 1.6 3.2 0.00 0.00 0.00 49 1010.8
20260504195126 22 72 3.2 14.5 0.00 0.00 0.00 49 1010.8
20260504194623 22 352 1.6 17.7 0.00 0.00 0.00 50 1011.0
20260504194119 24 7 6.4 16.1 0.00 0.00 0.00 47 1010.7
20260504193615 23 118 3.2 12.9 0.00 0.00 0.00 49 1011.0
20260504193114 23 61 8.0 11.3 0.00 0.00 0.00 48 1011.1
20260504192612 22 280 1.6 11.3 0.00 0.00 0.00 52 1011.0
20260504192110 22 55 3.2 14.5 0.00 0.00 0.00 51 1011.1
20260504191608 22 95 11.3 14.5 0.00 0.00 0.00 48 1010.9
20260504191104 22 31 0.0 6.4 0.00 0.00 0.00 50 1011.2
20260504190600 21 182 1.6 3.2 0.00 0.00 0.00 50 1011.1
20260504190056 21 47 3.2 9.7 0.00 0.00 0.00 52 1011.2
20260504185553 22 51 11.3 14.5 0.00 0.00 0.00 46 1011.2
20260504185050 22 45 9.7 16.1 0.00 0.00 0.00 45 1011.1
20260504184545 22 70 8.0 11.3 0.00 0.00 0.00 45 1011.2
20260504184040 23 59 1.6 17.7 0.00 0.00 0.00 48 1011.0
20260504183538 22 47 3.2 4.8 0.00 0.00 0.00 48 1011.4
20260504183036 22 47 3.2 4.8 0.00 0.00 0.00 48 1011.4
20260504182532 22 349 3.2 11.3 0.00 0.00 0.00 47 1011.2
20260504182030 22 32 3.2 9.7 0.00 0.00 0.00 49 1011.1
20260504181527 22 50 9.7 12.9 0.00 0.00 0.00 47 1011.3
20260504181025 22 246 1.6 6.4 0.00 0.00 0.00 51 1011.2
20260504180524 22 31 4.8 12.9 0.00 0.00 0.00 47 1011.5
20260504180022 21 59 4.8 14.5 0.00 0.00 0.00 48 1011.3
20260504175519 22 35 4.8 6.4 0.00 0.00 0.00 49 1011.7
20260504175016 21 161 4.8 12.9 0.00 0.00 0.00 52 1011.4
20260504174514 21 237 6.4 12.9 0.00 0.00 0.00 49 1011.7
20260504174011 21 215 3.2 12.9 0.00 0.00 0.00 51 1012.0
20260504173507 21 286 3.2 11.3 0.00 0.00 0.00 51 1011.8
20260504173005 21 26 4.8 6.4 0.00 0.00 0.00 50 1012.0
20260504172501 21 222 3.2 11.3 0.00 0.00 0.00 52 1012.2
20260504171957 21 19 4.8 24.1 0.00 0.00 0.00 52 1011.9
20260504171454 21 6 6.4 14.5 0.00 0.00 0.00 52 1012.4
20260504170951 20 87 3.2 9.7 0.00 0.00 0.00 52 1012.2
20260504170447 21 27 11.3 16.1 0.00 0.00 0.00 51 1012.4
20260504160407 18 23 6.4 22.5 0.00 0.00 0.00 56 1013.4
20260504150831 18 111 1.6 14.5 0.00 0.00 0.00 56 1013.9
20260504150328 18 90 3.2 4.8 0.00 0.00 0.00 54 1013.8
20260504141258 17 41 3.2 4.8 0.00 0.00 0.00 52 1014.0
20260504140754 17 37 8.0 11.3 0.00 0.00 0.00 51 1013.9
20260504140250 17 34 1.6 14.5 0.00 0.00 0.00 51 1014.0
20260504130719 15 63 0.0 1.6 0.00 0.00 0.00 54 1014.0
20260504130214 15 35 4.8 12.9 0.00 0.00 0.00 54 1014.1
20260504120139 12 56 3.2 3.2 0.00 0.00 0.00 64 1013.9
20260504110606 8 215 3.2 4.8 0.00 0.00 0.00 82 1014.3
20260504100533 8 143 0.0 0.0 0.00 0.00 0.00 79 1014.5
20260504081926 7 178 0.0 3.2 0.00 0.00 0.00 94 1015.3
20260504081424 7 159 0.0 3.2 0.00 0.00 0.00 94 1015.2
20260504080919 7 137 0.0 0.0 0.00 0.00 0.00 94 1015.4
20260504080417 7 137 0.0 0.0 0.00 0.00 0.00 94 1015.4